Regional Weather Roundup
Issued by NWS

Home | Current Version | Previous Version | Text Only | Print | Product List | Glossary On
Versions: 1 2 3 4 5 6 7 8 9 10 11 12 13 14 15 16 17 18 19 20 21 22 23 24 25 26 27 28 29 30 31 32 33 34 35 36 37 38 39 40 41 42 43 44 45 46 47 48 49 50
000
ASUS45 KTFX 271610
RWRMT
MONTANA REGIONAL WEATHER ROUNDUP
NATIONAL WEATHER SERVICE GREAT FALLS MT
1000 AM MDT THU APR 27 2017

NOTE: "FAIR" INDICATES FEW OR NO CLOUDS BELOW 12000 FEET WITH NO
SIGNIFICANT WEATHER AND/OR OBSTRUCTIONS TO VISIBILITY.

MTZ001>007-043-271700-
WEST OF THE DIVIDE

CITY           SKY/WX    TMP DP  RH WIND       PRES   REMARKS
KALISPELL      CLOUDY    41  35  79 S12       29.73R
MISSOULA       CLOUDY    42  31  64 W7        29.81R
BUTTE          CLOUDY    37  21  52 NW14      29.72R WCI  28
MULLAN PASS    LGT SNOW  24  24 100 VRB3      29.76R FOG
ANACONDA         N/A     37  21  52 W15G24    29.73R WCI  28
DEER LODGE       N/A     39  25  56 NW6       29.75S
EUREKA           N/A     39  36  87 E8        29.72R
HAMILTON         N/A     45  18  33 W8G16     29.80R
LIBBY            N/A     45  32  61 SE7       29.75R
$$

MTZ008-052>055-271700-
SOUTHWEST MONTANA

CITY           SKY/WX    TMP DP  RH WIND       PRES   REMARKS
BOZEMAN        MIX PCPN  37  35  92 W6        29.71R
DILLON         MOSUNNY   36  28  73 SW5       29.71S
W YELLOWSTONE  LGT SNOW  30  28  93 W5        29.67R
THREE FORKS      N/A     41   9  27 SW6       29.73S
$$

MTZ009-010-012-014-046-048-049-054-271700-
EAST SLOPES AND CENTRAL MONTANA

CITY           SKY/WX    TMP DP  RH WIND       PRES   REMARKS
CUT BANK       MIX PCPN  37  35  92 N16       29.66R WCI  28
GREAT FALLS    CLOUDY    43  36  76 NW7       29.66R
MALMSTROM AFB  LGT RAIN  43  37  81 NW12      29.67R
HELENA         CLOUDY    45  27  49 W17       29.69S
AUGUSTA        PTSUNNY   40  35  80 NE5       29.65R
BOWMANS CRNR   CLOUDY    42  28  58 W17       29.64R
CHOTEAU          N/A     41  37  87 NW14      29.68S
FAIRFIELD      PTSUNNY   40  35  81 NW9       29.66R
POWER          LGT RAIN  39  37  91 NW10      29.66R
RAYNESFORD     PTSUNNY   42  31  65 W17G23    29.65R
ULM            PTSUNNY   44  34  66 W9        29.66R
$$

MTZ011-013-016-021-045-047-050-051-271700-
NORTH CENTRAL MONTANA

CITY           SKY/WX    TMP DP  RH WIND       PRES   REMARKS
HAVRE          CLOUDY    45  40  82 NW8       29.63S
LEWISTOWN      CLOUDY    42  37  82 NW10      29.62S
CHINOOK          N/A     39  36  87 E12       29.64R WCI  32
DENTON         PTSUNNY   44  40  85 NW10G22   29.60S
FORT BENTON      N/A     45  39  81 MISG      29.67R
GEYSER         PTSUNNY   43  34  70 W18       29.63R
GRASS RANGE    PTSUNNY   43  38  81 NW8       29.59R
JUDITH GAP     PTSUNNY   43  36  75 N17       29.61S
STANFORD       PTSUNNY   43  34  70 NW21      29.63R
WINIFRED       PTSUNNY   42  40  91 W9        29.62R
$$

MTZ017>020-022>027-061-062-271700-
NORTHEAST MONTANA

CITY           SKY/WX    TMP DP  RH WIND       PRES   REMARKS
GLASGOW        CLOUDY    42  26  53 E14       29.68S
JORDAN           N/A     45  30  55 SE9       29.64S
SIDNEY         SUNNY     42  27  55 E8        29.74S
WOLF POINT     SUNNY     46  29  51 E15       29.71F
PLENTYWOOD       N/A     37  27  65 E9        29.76S WCI  31
POPLAR           N/A     43  27  52 E10       29.73F
$$

MTZ028>42-056>058-271700-
SOUTHCENTRAL AND SOUTHEAST MONTANA

CITY           SKY/WX    TMP DP  RH WIND       PRES   REMARKS
BAKER          SUNNY     38  28  67 SE17      29.67S WCI  28
BILLINGS       CLOUDY    44  38  79 N9        29.60R
LIVINGSTON     CLOUDY    39  34  82 W15       29.66S WCI  31
MILES CITY     MOSUNNY   46  29  51 MISG      29.64S
BIG TIMBER     CLOUDY    39  34  81 SW22G33   29.66R WCI  29
LAUREL           N/A     43  33  67 NW7       29.64R
ROUNDUP          N/A     42  37  82 N6        29.57R
$$

REGIONAL REPORTS...DAKOTAS

CITY           SKY/WX    TMP DP  RH WIND       PRES   REMARKS
WILLISTON      SUNNY     42  24  49 E7        29.76S
MINOT          SUNNY     42  13  30 N13       29.77S
DICKINSON      PTSUNNY   37  25  61 E12       29.70S WCI  29
BEACH            N/A     39  27  60 E13       29.72F WCI  32
TIOGA            N/A     37  16  41 E16       29.76F WCI  28
WATFORD CITY     N/A     39  23  52 E10G17    29.74S
BISMARCK       SUNNY     42  21  43 N10       29.74F
GRAND FORKS    MOSUNNY   32  24  72 NW9       29.71S WCI  24
FARGO          MIX PCPN  30  25  81 N16       29.69F WCI  19
BUFFALO SD       N/A     33  28  81 NE10      29.61R WCI  25
RAPID CITY     CLOUDY    40  32  73 VRB6      29.66S
$$

REGIONAL REPORTS...WYOMING/IDAHO/WASHINGTON

CITY           SKY/WX    TMP DP  RH WIND       PRES   REMARKS
GILLETTE       CLOUDY    38  35  89 SE10      29.56S WCI  31
SHERIDAN       MIX PCPN  35  33  92 CALM      29.58S FOG
BUFFALO WY     LGT RAIN  36  32  85 N20       29.55S WCI  25
CODY           CLOUDY    40  34  79 N10       29.60R
IDAHO FALLS    PTSUNNY   41  35  79 SW15      29.74R
SALMON         CLOUDY    39  27  60 S7        29.79S
BOISE          CLOUDY    44  30  57 NW21      29.94S
SPOKANE        PTSUNNY   40  31  70 SW17      29.86R
$$

REGIONAL REPORTS...ALBERTA

CITY           SKY/WX    TMP DP  RH WIND       PRES   REMARKS
EDMONTON       CLOUDY    36  32  87 E5        29.77S
CALGARY        CLOUDY    37  34  87 VRB2      29.69S FOG
LETHBRIDGE     CLOUDY    39  36  87 NE6       29.70S
MEDICINE HAT   PTSUNNY   39  34  81 N8        29.71R
WATERTON GATE    N/A     36  32  87 NE2         N/A
MILK RIVER       N/A     36  34  93 N12         N/A  WCI  27
$$

REGIONAL REPORTS...SASKATCHEWAN

CITY           SKY/WX    TMP DP  RH WIND       PRES   REMARKS
SWIFT CURRENT  CLOUDY    43  25  49 S15       29.68S
REGINA         MOSUNNY   39  16  38 E13G20    29.80S WCI  32
SASKATOON      CLOUDY    37  23  56 SE13      29.83S WCI  29
CYPRESS HILLS    N/A     34  32  93 N6          N/A  WCI  29
VAL MARIE        N/A     43  25  49 SE13        N/A
ASSINIBOIA       N/A     36  32  87 E8          N/A  WCI  29
$$



USA.gov is the U.S. government's official web portal to all federal, state and local government web resources and services.